| time (UTC) | temp C | wind direction | speed KPH | gust KPH | rain 1hr cm | rain 24hr cm | rain mn cm | humidity % | barometer mb |
| 20260504082002 | 2 | 0 | 0.0 | 0.0 | 0.00 | 0.00 | 0.00 | 86 | 1013.5 |
| 20260504081003 | 2 | 0 | 0.0 | 0.0 | 0.00 | 0.00 | 0.00 | 86 | 1013.5 |
| 20260504050002 | 4 | 0 | 0.0 | 0.0 | 0.00 | 0.00 | 0.00 | 78 | 1013.7 |
| 20260504045003 | 4 | 0 | 0.0 | 0.0 | 0.00 | 0.00 | 0.00 | 77 | 1013.7 |
| 20260504043003 | 5 | 0 | 0.0 | 0.0 | 0.00 | 0.00 | 0.00 | 76 | 1013.7 |
| 20260504042003 | 5 | 0 | 0.0 | 0.0 | 0.00 | 0.00 | 0.00 | 76 | 1013.7 |
| 20260504040003 | 6 | 280 | 0.0 | 1.6 | 0.00 | 0.00 | 0.00 | 70 | 1013.3 |
| 20260504035003 | 6 | 0 | 0.0 | 0.0 | 0.00 | 0.00 | 0.00 | 67 | 1013.3 |
| 20260504034003 | 6 | 0 | 0.0 | 0.0 | 0.00 | 0.00 | 0.00 | 67 | 1013.2 |
| 20260504033003 | 6 | 0 | 0.0 | 0.0 | 0.00 | 0.00 | 0.00 | 66 | 1013.3 |
| 20260504032003 | 6 | 0 | 0.0 | 0.0 | 0.00 | 0.00 | 0.00 | 64 | 1013.2 |
| 20260504031003 | 7 | 0 | 0.0 | 0.0 | 0.00 | 0.00 | 0.00 | 63 | 1013.1 |
| 20260504030002 | 7 | 0 | 0.0 | 0.0 | 0.00 | 0.00 | 0.00 | 62 | 1013.0 |
| 20260504025002 | 7 | 0 | 0.0 | 0.0 | 0.00 | 0.00 | 0.00 | 61 | 1013.1 |
| 20260504024003 | 7 | 0 | 0.0 | 0.0 | 0.00 | 0.00 | 0.00 | 62 | 1013.1 |
| 20260504023003 | 8 | 279 | 0.0 | 1.6 | 0.00 | 0.00 | 0.00 | 60 | 1013.0 |
| 20260504022003 | 8 | 243 | 0.0 | 1.6 | 0.00 | 0.00 | 0.00 | 60 | 1013.2 |
| 20260504021002 | 8 | 0 | 0.0 | 0.0 | 0.00 | 0.00 | 0.00 | 57 | 1013.1 |
| 20260504020002 | 8 | 0 | 0.0 | 0.0 | 0.00 | 0.00 | 0.00 | 56 | 1013.1 |
| 20260504015003 | 9 | 241 | 0.0 | 1.6 | 0.00 | 0.00 | 0.00 | 56 | 1013.1 |
| 20260504014003 | 9 | 225 | 0.0 | 1.6 | 0.00 | 0.00 | 0.00 | 54 | 1013.1 |
| 20260504013003 | 9 | 0 | 0.0 | 0.0 | 0.00 | 0.00 | 0.00 | 53 | 1012.9 |
| 20260504012003 | 9 | 0 | 0.0 | 0.0 | 0.00 | 0.00 | 0.00 | 53 | 1012.7 |
| 20260504011003 | 10 | 212 | 0.0 | 1.6 | 0.00 | 0.00 | 0.00 | 52 | 1012.8 |
| 20260504010003 | 10 | 215 | 0.0 | 1.6 | 0.00 | 0.00 | 0.00 | 50 | 1012.8 |
| 20260504005004 | 11 | 218 | 0.0 | 1.6 | 0.00 | 0.00 | 0.00 | 48 | 1012.6 |
| 20260504004002 | 11 | 170 | 0.0 | 1.6 | 0.00 | 0.00 | 0.00 | 48 | 1012.6 |
| 20260504003003 | 11 | 238 | 0.0 | 1.6 | 0.00 | 0.00 | 0.00 | 47 | 1012.5 |
| 20260504002003 | 12 | 254 | 0.0 | 1.6 | 0.00 | 0.00 | 0.00 | 45 | 1012.3 |
| 20260504001002 | 12 | 306 | 0.0 | 3.2 | 0.00 | 0.00 | 0.00 | 44 | 1012.3 |
| 20260503235003 | 13 | 300 | 0.0 | 3.2 | 0.00 | 0.00 | 0.00 | 42 | 1012.0 |
| 20260503233003 | 13 | 326 | 3.2 | 9.7 | 0.00 | 0.00 | 0.00 | 40 | 1012.0 |
| 20260503232003 | 14 | 293 | 3.2 | 19.3 | 0.00 | 0.00 | 0.00 | 40 | 1011.9 |
| 20260503231003 | 14 | 304 | 1.6 | 16.1 | 0.00 | 0.00 | 0.00 | 39 | 1011.9 |
| 20260503230002 | 15 | 289 | 3.2 | 14.5 | 0.00 | 0.00 | 0.00 | 37 | 1011.8 |
| 20260503225002 | 15 | 317 | 3.2 | 14.5 | 0.00 | 0.00 | 0.00 | 38 | 1011.8 |
| 20260503222003 | 15 | 290 | 6.4 | 17.7 | 0.00 | 0.00 | 0.00 | 37 | 1011.7 |
| 20260503221003 | 16 | 292 | 6.4 | 19.3 | 0.00 | 0.00 | 0.00 | 35 | 1011.7 |
| 20260503220003 | 16 | 307 | 3.2 | 14.5 | 0.00 | 0.00 | 0.00 | 36 | 1011.7 |
| 20260503215002 | 16 | 304 | 6.4 | 24.1 | 0.00 | 0.00 | 0.00 | 34 | 1011.8 |
| 20260503214003 | 16 | 298 | 3.2 | 16.1 | 0.00 | 0.00 | 0.00 | 36 | 1011.7 |
| 20260503213003 | 16 | 294 | 3.2 | 22.5 | 0.00 | 0.00 | 0.00 | 38 | 1011.5 |
| 20260503212003 | 15 | 311 | 6.4 | 29.0 | 0.00 | 0.00 | 0.00 | 37 | 1011.6 |
| 20260503211003 | 16 | 273 | 3.2 | 14.5 | 0.00 | 0.00 | 0.00 | 41 | 1011.5 |
| 20260503210003 | 15 | 304 | 3.2 | 12.9 | 0.00 | 0.00 | 0.00 | 38 | 1011.6 |
| 20260503205003 | 16 | 309 | 3.2 | 14.5 | 0.00 | 0.00 | 0.00 | 37 | 1011.6 |
| 20260503204004 | 16 | 304 | 6.4 | 16.1 | 0.00 | 0.00 | 0.00 | 37 | 1011.7 |
| 20260503202003 | 15 | 341 | 3.2 | 17.7 | 0.00 | 0.00 | 0.00 | 34 | 1011.8 |
| 20260503201002 | 14 | 284 | 3.2 | 17.7 | 0.00 | 0.00 | 0.00 | 36 | 1012.0 |
| 20260503200003 | 15 | 311 | 3.2 | 14.5 | 0.00 | 0.00 | 0.00 | 35 | 1012.0 |
| 20260503195003 | 15 | 291 | 3.2 | 12.9 | 0.00 | 0.00 | 0.00 | 40 | 1012.0 |
| 20260503194003 | 15 | 321 | 8.0 | 22.5 | 0.00 | 0.00 | 0.00 | 34 | 1012.3 |
| 20260503193003 | 15 | 280 | 3.2 | 16.1 | 0.00 | 0.00 | 0.00 | 41 | 1012.4 |
| 20260503191003 | 15 | 331 | 6.4 | 19.3 | 0.00 | 0.00 | 0.00 | 39 | 1012.7 |
| 20260503185003 | 14 | 289 | 6.4 | 32.2 | 0.00 | 0.00 | 0.00 | 38 | 1012.9 |
| 20260503184003 | 15 | 297 | 6.4 | 24.1 | 0.00 | 0.00 | 0.00 | 40 | 1013.1 |
| 20260503183003 | 14 | 290 | 6.4 | 30.6 | 0.00 | 0.00 | 0.00 | 38 | 1013.1 |
| 20260503182003 | 15 | 298 | 6.4 | 17.7 | 0.00 | 0.00 | 0.00 | 43 | 1013.2 |
| 20260503181004 | 14 | 279 | 3.2 | 17.7 | 0.00 | 0.00 | 0.00 | 39 | 1013.0 |
| 20260503180004 | 14 | 305 | 6.4 | 14.5 | 0.00 | 0.00 | 0.00 | 40 | 1013.2 |
| 20260503175003 | 13 | 312 | 6.4 | 16.1 | 0.00 | 0.00 | 0.00 | 40 | 1013.2 |
| 20260503174003 | 13 | 323 | 6.4 | 19.3 | 0.00 | 0.00 | 0.00 | 40 | 1013.3 |
| 20260503173003 | 13 | 309 | 6.4 | 16.1 | 0.00 | 0.00 | 0.00 | 38 | 1013.4 |
| 20260503172003 | 13 | 333 | 6.4 | 22.5 | 0.00 | 0.00 | 0.00 | 42 | 1013.3 |
| 20260503171003 | 13 | 338 | 6.4 | 24.1 | 0.00 | 0.00 | 0.00 | 38 | 1013.4 |
| 20260503151003 | 11 | 334 | 6.4 | 29.0 | 0.00 | 0.00 | 0.00 | 43 | 1014.2 |